Location: Muenchen
(48.1800°N, 11.5800°E)
Time: 15:57:30
(UTC+01:00)

Vanguard 2 Rocket - Visible Passes

Search period start: 24 November 2014 00:00
Search period end: 04 December 2014 00:00
Orbit: 553 x 3335 km, 32.9° (Epoch: 23 November)

Date Brightness Start Highest point End Pass type
(mag) Time Alt. Az. Time Alt. Az. Time Alt. Az.
24 Nov 9.6 17:50:02 10° WSW 18:06:11 41° S 18:15:59 13° ESE visible
24 Nov 9.1 20:07:47 10° WSW 20:20:19 34° SSW 20:21:54 32° S visible
25 Nov 9.9 16:49:27 10° SW 17:06:30 41° S 17:18:24 10° ESE visible
25 Nov 9.2 19:06:33 10° WSW 19:21:23 40° SSW 19:26:48 26° SSE visible
25 Nov 9.8 21:25:31 10° WSW 21:32:43 21° SW 21:32:43 21° SW visible
26 Nov 9.6 18:05:27 10° WSW 18:22:02 43° S 18:31:44 14° ESE visible
26 Nov 9.4 20:23:52 10° W 20:35:54 30° SSW 20:37:39 29° SSW visible
27 Nov 10.0 17:04:37 10° WSW 17:22:19 44° S 17:34:39 10° ESE visible
27 Nov 9.4 19:22:24 10° WSW 19:37:05 37° SSW 19:42:37 25° SSE visible
27 Nov 10.0 21:42:39 10° WSW 21:48:32 16° SW 21:48:32 16° SW visible
28 Nov 9.7 18:21:07 10° WSW 18:37:48 43° SSW 18:47:38 15° SE visible
28 Nov 9.6 20:40:16 10° W 20:51:16 25° SW 20:53:32 23° SSW visible
29 Nov 10.0 17:20:06 10° WSW 17:38:06 46° S 17:50:42 10° ESE visible
29 Nov 9.6 19:38:29 10° W 19:52:35 33° SSW 19:58:36 22° SSE visible
29 Nov 10.3 22:01:59 10° WSW 22:04:31 11° SW 22:04:31 11° SW visible
30 Nov 9.9 18:36:59 10° W 18:53:25 40° SSW 19:03:43 13° SE visible
30 Nov 10.0 20:57:16 10° W 21:06:24 19° SW 21:09:39 17° SSW visible
01 Dec 10.1 17:35:49 10° WSW 17:53:47 45° SSW 18:06:34 10° SE visible
01 Dec 9.9 19:54:51 10° W 20:07:51 27° SW 20:14:51 16° S visible
02 Dec 10.3 16:35:01 10° WSW 16:53:45 48° S 17:08:09 10° ESE visible
02 Dec 10.1 18:53:04 10° W 19:08:50 35° SSW 19:19:54 10° SSE visible
02 Dec 10.3 21:15:42 10° WSW 21:21:17 13° SW 21:26:01 10° SSW visible
03 Dec 10.2 17:51:43 10° W 18:09:20 42° SSW 18:22:11 10° SE visible
03 Dec 10.2 20:11:47 10° W 20:22:53 21° SW 20:31:18 10° S visible
